Flag for Canada Weather past 2 weeks in Barrie, Ontario, Canada

Now
66 °F

Light rain. Passing clouds.


Feels Like: 66 °F
Forecast: 52 / 73 °F
Wind: 6 mph from South

Location: Borden

Current Time: May 30, 2015 at 3:34:08 AM

Latest Report: May 30, 2015 at 3:00 AM


Visibility: 9 mi

Pressure: 29.93 "Hg

Humidity: 83%

Dew point: 61 °F

Location of BarrieLocation

Historic Weather in Barrie — Graph

°F

Barrie temperature yesterday

Maximum temperature yesterday: 82 °F (at 3:00 PM)
Minimum temperature yesterday: 48 °F (at 4:46 AM)
Average temperature yesterday: 66 °F

Past Weeks' High & Low Weather Summary

 TemperatureHumidityPressure
High86 °F (May 18, 3:00 PM)100% (May 16, 10:00 PM)30.40 "Hg (May 16, 10:00 PM)
Low27 °F (May 23, 1:00 AM)20% (May 24, 2:00 PM)29.83 "Hg (May 21, 8:00 PM)
Average60 °F67%30.07 "Hg
* Reported May 15 2:00 AM — May 30 2:00 AM, Barrie, Weather by CustomWeather, © 2015

Note: Actual official high and low records may vary slightly from our data, if they occured in-between our weather recording intervals... More about our weather records

Advertising

Barrie weather history for previous 24 hours

 ConditionsComfort  
Time TempWeatherWind HumidityBarometerVisibility
2:00 AM
Sat, May 30
66 °FClear.7 mph78%29.94 "Hg9 mi
1:00 AM66 °FClear.7 mph68%29.95 "Hg9 mi
12:00 AM66 °FClear.8 mph68%29.99 "Hg9 mi
11:00 PM
Fri, May 29
68 °FPassing clouds.8 mph64%30.01 "Hg9 mi
10:00 PM70 °FPassing clouds.9 mph60%30.02 "Hg9 mi
9:00 PM72 °FOvercast.15 mph57%30.01 "Hg9 mi
8:47 PM73 °FLight rain. Overcast.14 mph57%30.02 "Hg9 mi
8:00 PM73 °FPartly sunny.13 mph57%30.03 "Hg9 mi
7:00 PM77 °FPartly sunny.9 mph54%30.04 "Hg9 mi
6:00 PM81 °FSunny.15 mph48%30.05 "Hg9 mi
5:00 PM81 °FSunny.13 mph48%30.08 "Hg9 mi
4:00 PM82 °FSunny.15 mph45%30.10 "Hg9 mi
3:00 PM82 °FSunny.10 mph42%30.13 "Hg9 mi
2:00 PM79 °FSunny.16 mph45%30.15 "Hg9 mi
1:00 PM79 °FPassing clouds.16 mph42%30.17 "Hg9 mi
12:00 PM77 °FSunny.16 mph42%30.19 "Hg9 mi
11:00 AM73 °FSunny.12 mph53%30.20 "Hg9 mi
10:00 AM73 °FPassing clouds.14 mph53%30.21 "Hg9 mi
9:00 AM68 °FSunny.12 mph69%30.22 "Hg9 mi
8:00 AM63 °FSunny.5 mph83%30.23 "Hg9 mi
7:00 AM55 °FSunny.No wind100%30.24 "Hg8 mi
6:00 AM50 °FClear.3 mph100%30.24 "Hg4 mi
5:00 AM50 °FLight fog.2 mph100%30.24 "Hg6 mi
4:46 AM48 °FClear.2 mph100%30.24 "Hg5 mi
4:01 AM50 °FClear.No wind100%30.23 "Hg7 mi
3:00 AM50 °FClear.3 mph100%30.23 "Hg9 mi
Weather by CustomWeather, © 2015

See weather overviewHow to use our weather pages